Location: Geroldsau
(48.7259°N, 8.2466°E)
Time: 07:46:24
(UTC+00:00)

FALCON 9 DEB - Pass Details

Date: 20 June 2021
Orbit: 363 x 379 km, 53.0° (Epoch: 26 July)

Event Time Altitude Azimuth Distance (km) Brightness Sun altitude
Rises 02:07:07 0° 295° (WNW) 2,277 6.7 -9.6°
Reaches altitude 10° 02:09:11 10° 294° (WNW) 1,419 5.6 -9.4°
Maximum altitude 02:12:21 77° 208° (SSW) 401 2.8 -9.1°
Drops below altitude 10° 02:15:30 10° 122° (ESE) 1,405 5.8 -8.8°
Sets 02:17:32 0° 121° (ESE) 2,253 6.9 -8.6°
